Location: *
(46.3500°N, 10.9000°E)
Time: 03:53:18
(UTC+00:00)

BREEZE M DEB (TANK) - Pass Details

Date: 09 April 2020
Orbit: 303 x 11878 km, 49.5° (Epoch: 06 June)

Event Time Altitude Azimuth Distance (km) Brightness Sun altitude
Rises 19:13:51 0° 217° (SW) 2,193 5.5 -13.4°
Reaches altitude 10° 19:15:18 10° 208° (SSW) 1,551 4.6 -13.6°
Maximum altitude 19:18:13 41° 135° (SE) 976 3.1 -14.0°
Drops below altitude 10° 19:25:28 10° 68° (ENE) 3,867 6.2 -15.1°
Sets 19:31:23 0° 64° (ENE) 6,359 7.4 -16.0°
